Wetterdaten: aktuell Mittwoch, 01.12.2021 16:30
Datum Zeit Temp. I. Temp. A. Feuchte I. Feuchte A. Luftdruck Regen Wind Richtung Richtung Taupunkt Windchill Windben
01.12.2021 16:30 19,4 C 7,4 C 53 % 81 % 998,7 hPa 0,0 l/m 5,0 km/h (1 Bft) O-SO 102 4,4 C 7,4 C 5,8 km/h (2 Bft)
01.12.2021 15:30 19,2 C 7,6 C 52 % 79 % 999,7 hPa 0,0 l/m 5,8 km/h (2 Bft) SO 127 4,2 C 7,6 C 7,9 km/h (2 Bft)
01.12.2021 14:30 19,0 C 7,7 C 48 % 77 % 1000,7 hPa 0,0 l/m 9,4 km/h (2 Bft) O-NO 71 3,9 C 5,4 C 10,1 km/h (2 Bft)
01.12.2021 13:30 18,8 C 7,3 C 45 % 78 % 1001,8 hPa 0,0 l/m 7,2 km/h (2 Bft) O-SO 123 3,7 C 6,7 C 13,0 km/h (3 Bft)
01.12.2021 12:30 18,7 C 6,8 C 42 % 79 % 1002,9 hPa 0,0 l/m 9,4 km/h (2 Bft) O 101 3,4 C 4,5 C 10,1 km/h (2 Bft)
01.12.2021 11:30 19,3 C 6,6 C 43 % 85 % 1005,0 hPa 0,0 l/m 8,6 km/h (2 Bft) S 172 4,3 C 4,8 C 14,0 km/h (3 Bft)
01.12.2021 10:30 19,7 C 5,4 C 47 % 91 % 1006,3 hPa 0,0 l/m 7,9 km/h (2 Bft) O-SO 109 4,1 C 4,1 C 10,1 km/h (2 Bft)
01.12.2021 09:30 19,7 C 4,8 C 47 % 93 % 1007,4 hPa 0,0 l/m 7,9 km/h (2 Bft) SO 135 3,8 C 3,5 C 12,2 km/h (2 Bft)
01.12.2021 08:30 19,7 C 4,5 C 47 % 92 % 1007,4 hPa 0,0 l/m 6,5 km/h (2 Bft) SO 142 3,3 C 4,4 C 8,6 km/h (2 Bft)
01.12.2021 07:30 19,8 C 4,3 C 48 % 95 % 1008,5 hPa 0,0 l/m 5,8 km/h (2 Bft) O-SO 102 3,6 C 4,3 C 9,4 km/h (2 Bft)
01.12.2021 06:30 19,9 C 4,0 C 49 % 97 % 1009,6 hPa 0,0 l/m 5,8 km/h (2 Bft) O-SO 116 3,6 C 4,0 C 5,8 km/h (2 Bft)
01.12.2021 05:30 19,7 C 3,8 C 49 % 99 % 1009,6 hPa 0,0 l/m 8,6 km/h (2 Bft) O-SO 102 3,7 C 1,8 C 10,1 km/h (2 Bft)
01.12.2021 04:30 19,7 C 3,5 C 49 % 99 % 1010,7 hPa 0,0 l/m 7,2 km/h (2 Bft) S-SW 210 3,4 C 2,8 C 8,6 km/h (2 Bft)
01.12.2021 03:30 19,7 C 3,2 C 49 % 99 % 1011,8 hPa 0,0 l/m 7,2 km/h (2 Bft) SO 128 3,1 C 2,4 C 10,1 km/h (2 Bft)
01.12.2021 02:30 19,7 C 3,0 C 49 % 97 % 1011,8 hPa 0,0 l/m 5,8 km/h (2 Bft) SO 127 2,6 C 3,0 C 7,2 km/h (2 Bft)
01.12.2021 01:30 19,7 C 3,0 C 49 % 96 % 1012,9 hPa 0,0 l/m 4,3 km/h (1 Bft) S-SW 196 2,4 C 3,0 C 10,1 km/h (2 Bft)
01.12.2021 00:30 19,6 C 3,3 C 50 % 94 % 1012,8 hPa 0,0 l/m 5,0 km/h (1 Bft) S-SO 160 2,4 C 3,3 C 7,2 km/h (2 Bft)
30.11.2021 23:30 19,6 C 3,5 C 50 % 94 % 1011,7 hPa 0,0 l/m 14,8 km/h (3 Bft) S-SW 213 2,6 C -2,6 C 19,1 km/h (3 Bft)
30.11.2021 22:30 19,5 C 3,1 C 50 % 98 % 1011,8 hPa 0,0 l/m 13,3 km/h (3 Bft) SW 215 2,8 C -2,2 C 16,9 km/h (3 Bft)
30.11.2021 21:30 19,2 C 2,8 C 49 % 99 % 1011,8 hPa 0,0 l/m 8,6 km/h (2 Bft) S-SW 199 2,7 C 0,8 C 10,8 km/h (2 Bft)
30.11.2021 20:30 18,8 C 2,4 C 44 % 97 % 1010,9 hPa 1,0 l/m 7,2 km/h (2 Bft) S-SW 212 2,0 C 1,6 C 8,6 km/h (2 Bft)
30.11.2021 19:30 19,5 C 2,3 C 49 % 95 % 1010,9 hPa 1,0 l/m 10,1 km/h (2 Bft) S-SW 213 1,6 C -1,0 C 14,0 km/h (3 Bft)
30.11.2021 18:30 19,5 C 2,3 C 49 % 94 % 1010,9 hPa 2,0 l/m 7,9 km/h (2 Bft) S-SW 193 1,4 C 0,9 C 14,0 km/h (3 Bft)
30.11.2021 17:30 19,5 C 2,1 C 49 % 95 % 1009,9 hPa 0,0 l/m 7,2 km/h (2 Bft) S-SO 155 1,4 C 1,3 C 12,2 km/h (2 Bft)
30.11.2021 17:00 19,5 C 2,0 C 48 % 96 % 1009,9 hPa 0,0 l/m 5,0 km/h (1 Bft) S-SW 207 1,4 C 2,0 C 13,3 km/h (3 Bft)
_ Min-Zeit 12:59 17:00 19:59 14:31 16:03 - 20:34 - - 18:57 17:35 02:45
Minimum _ 18,5 C 2,0 C 39 % 75 % 998,6 hPa - 0,0 km/h (0 Bft) - - 1,3 C -6,5 C 0,0 km/h (0 Bft)
_ Max-Zeit 06:07 14:42 16:08 21:05 00:56 17:37 22:31 - - 11:23 14:52 22:43
Maximum _ 19,9 C 7,9 C 54 % 99 % 1012,9 hPa 1,0 l/m 19,8 km/h
S-SW (3 Bft)
- - 4,7 C 7,8 C 28,1 km/h
S-SW (4 Bft)
Durchschnitt _ 19,5 C 4,3 C 48 % 92 % 1008,4 hPa #4,0 l/m 8,0 km/h (2 Bft) O-SO - 3,1 C 2,5 C 10,6 km/h (2 Bft)